Tracking 29892 objects as of 21-Nov-2024
HD Live streaming from Space Station
objects crossing your sky now

SL-16 DEB

Track SL-16 DEB now!
10-day predictions


NORAD ID: 32006
Int'l Code: 2004-021J
Perigee: 817.9 km
Apogee: 1,070.7 km
Inclination: 71.1 °
Period: 103.8 minutes
Semi major axis: 7315 km
RCS: 0.0055 m2 (small)
Launch date: June 10, 2004
Source: Commonwealth of Independent States (former USSR) (CIS)
Launch site: TYURATAM MISSILE AND SPACE COMPLEX (TTMTR)

Note: This is SATELLITE DEBRIS
Your satellite tracking list
Your tracking list is empty




NASA's NSSDC Master Catalog

Two Line Element Set (TLE):
1 32006U 04021J   24325.88838559  .00002714  00000-0  20709-2 0  9992
2 32006  71.0967  44.8781 0172767  56.0717 305.6683 13.87574326576860
Source of the keplerian elements: AFSPC